• în Republica Moldova
  • Lista ţărilor
  • Pe 7 zile
  • Temperatura apei
  • Hartă satelitară
  • Meteo pe hartă
  • Widget-uri
  • user-avatar
    Intrare

    Meteo pe oră la Graz

    Astăzi, 25 Mai, Joi

    Timp Temperatura Precipitaţii Vânt Presiune Umiditate
    00:00 +12°C° 1 mm 1 m/s 726 mmHg 93%
    01:00 +12°C° 0 mm 1 m/s 726 mmHg 95%
    02:00 +11°C° 0,4 mm 1 m/s 726 mmHg 96%
    03:00 +10°C° 0,4 mm 1 m/s 726 mmHg 96%
    04:00 +9°C° 0,4 mm 1 m/s 726 mmHg 96%
    05:00 +10°C° 0 mm 1 m/s 726 mmHg 92%
    06:00 +12°C° 0 mm 2 m/s 726 mmHg 88%
    07:00 +13°C° 0 mm 2 m/s 727 mmHg 83%
    08:00 +15°C° 0 mm 2 m/s 727 mmHg 73%
    09:00 +16°C° 0 mm 3 m/s 727 mmHg 63%
    10:00 +17°C° 0 mm 3 m/s 727 mmHg 53%
    11:00 +18°C° 0 mm 3 m/s 727 mmHg 50%
    12:00 +19°C° 0 mm 3 m/s 726 mmHg 48%
    13:00 +19°C° 0 mm 3 m/s 727 mmHg 47%
    14:00 +19°C° 0 mm 3 m/s 726 mmHg 48%
    15:00 +19°C° 0 mm 3 m/s 726 mmHg 50%
    16:00 +19°C° 0 mm 3 m/s 726 mmHg 51%
    17:00 +18°C° 0 mm 2 m/s 726 mmHg 59%
    18:00 +16°C° 0 mm 2 m/s 726 mmHg 67%
    19:00 +15°C° 0 mm 1 m/s 726 mmHg 75%
    20:00 +13°C° 0 mm 1 m/s 726 mmHg 80%
    21:00 +12°C° 0 mm 1 m/s 726 mmHg 85%
    22:00 +10°C° 0 mm 1 m/s 726 mmHg 89%
    23:00 +10°C° 0 mm 1 m/s 726 mmHg 90%

    Mâine, 26 Mai, Vineri

    Timp Temperatura Precipitaţii Vânt Presiune Umiditate
    00:00 +9°C° 0 mm 2 m/s 726 mmHg 91%
    01:00 +9°C° 0 mm 2 m/s 726 mmHg 91%
    02:00 +9°C° 0 mm 2 m/s 726 mmHg 92%
    03:00 +8°C° 0 mm 2 m/s 726 mmHg 92%
    04:00 +8°C° 0 mm 2 m/s 726 mmHg 93%
    05:00 +11°C° 0 mm 1 m/s 726 mmHg 87%
    06:00 +13°C° 0 mm 1 m/s 727 mmHg 81%
    07:00 +15°C° 0 mm 1 m/s 727 mmHg 74%
    08:00 +16°C° 0 mm 1 m/s 727 mmHg 67%
    09:00 +19°C° 0 mm 1 m/s 727 mmHg 60%
    10:00 +21°C° 0 mm 1 m/s 727 mmHg 53%
    11:00 +22°C° 0 mm 1 m/s 727 mmHg 51%
    12:00 +21°C° 0 mm 2 m/s 727 mmHg 49%
    13:00 +23°C° 0 mm 2 m/s 727 mmHg 47%
    14:00 +23°C° 0 mm 2 m/s 726 mmHg 49%
    15:00 +23°C° 0 mm 2 m/s 726 mmHg 50%
    16:00 +23°C° 0 mm 2 m/s 726 mmHg 52%
    17:00 +20°C° 0 mm 2 m/s 726 mmHg 61%
    18:00 +18°C° 0 mm 2 m/s 726 mmHg 71%
    19:00 +18°C° 0 mm 1 m/s 726 mmHg 80%
    20:00 +15°C° 0 mm 1 m/s 726 mmHg 85%
    21:00 +13°C° 0 mm 1 m/s 726 mmHg 89%
    22:00 +11°C° 0 mm 1 m/s 726 mmHg 94%
    23:00 +11°C° 0 mm 1 m/s 727 mmHg 94%

    Poimâine, 27 Mai, Sâmbătă

    Timp Temperatura Precipitaţii Vânt Presiune Umiditate
    00:00 +11°C° 0 mm 1 m/s 727 mmHg 94%
    01:00 +11°C° 0 mm 1 m/s 727 mmHg 94%
    02:00 +11°C° 0 mm 1 m/s 727 mmHg 93%
    03:00 +11°C° 0 mm 1 m/s 727 mmHg 93%
    04:00 +11°C° 0 mm 1 m/s 727 mmHg 93%
    05:00 +13°C° 0 mm 1 m/s 727 mmHg 87%
    06:00 +15°C° 0 mm 1 m/s 727 mmHg 80%
    07:00 +18°C° 0 mm 1 m/s 728 mmHg 74%
    08:00 +20°C° 0 mm 1 m/s 728 mmHg 66%
    09:00 +22°C° 0 mm 1 m/s 728 mmHg 59%
    10:00 +23°C° 0 mm 2 m/s 728 mmHg 51%
    11:00 +24°C° 0 mm 2 m/s 728 mmHg 49%
    12:00 +24°C° 0 mm 2 m/s 728 mmHg 48%
    13:00 +25°C° 0 mm 2 m/s 728 mmHg 46%
    14:00 +25°C° 0 mm 2 m/s 728 mmHg 48%
    15:00 +25°C° 0 mm 2 m/s 728 mmHg 50%
    16:00 +24°C° 0 mm 2 m/s 728 mmHg 51%
    17:00 +21°C° 0 mm 2 m/s 728 mmHg 61%
    18:00 +20°C° 0 mm 2 m/s 728 mmHg 71%
    19:00 +19°C° 0 mm 1 m/s 728 mmHg 81%
    20:00 +16°C° 0 mm 1 m/s 728 mmHg 85%
    21:00 +14°C° 0 mm 1 m/s 728 mmHg 90%
    22:00 +12°C° 0 mm 1 m/s 729 mmHg 94%
    23:00 +12°C° 0 mm 1 m/s 729 mmHg 95%

    28 Mai, Duminică

    Timp Temperatura Precipitaţii Vânt Presiune Umiditate
    00:00 +11°C° 0 mm 1 m/s 729 mmHg 95%
    01:00 +9°C° 0 mm 0 m/s 729 mmHg 95%
    02:00 +9°C° 0 mm 0 m/s 729 mmHg 95%
    03:00 +9°C° 0 mm 0 m/s 729 mmHg 95%
    04:00 +8°C° 0 mm 0 m/s 729 mmHg 95%
    05:00 +11°C° 0 mm 0 m/s 729 mmHg 88%
    06:00 +14°C° 0 mm 0 m/s 729 mmHg 81%
    07:00 +17°C° 0 mm 0 m/s 730 mmHg 74%
    08:00 +20°C° 0 mm 1 m/s 730 mmHg 68%
    09:00 +22°C° 0 mm 1 m/s 730 mmHg 61%
    10:00 +23°C° 0 mm 2 m/s 730 mmHg 54%
    11:00 +24°C° 0 mm 2 m/s 730 mmHg 53%
    12:00 +25°C° 0 mm 2 m/s 730 mmHg 51%
    13:00 +25°C° 0 mm 2 m/s 730 mmHg 49%
    14:00 +25°C° 0 mm 2 m/s 729 mmHg 51%
    15:00 +25°C° 0 mm 2 m/s 729 mmHg 53%
    16:00 +25°C° 0 mm 2 m/s 729 mmHg 55%
    17:00 +23°C° 0 mm 2 m/s 729 mmHg 64%
    18:00 +21°C° 0 mm 2 m/s 729 mmHg 72%
    19:00 +20°C° 0 mm 1 m/s 728 mmHg 81%
    20:00 +18°C° 0 mm 1 m/s 728 mmHg 85%
    21:00 +15°C° 0 mm 1 m/s 728 mmHg 90%
    22:00 +13°C° 0 mm 1 m/s 728 mmHg 94%
    23:00 +12°C° 0 mm 1 m/s 728 mmHg 94%

    29 Mai, Luni

    Timp Temperatura Precipitaţii Vânt Presiune Umiditate
    00:00 +12°C° 0 mm 1 m/s 728 mmHg 94%
    01:00 +12°C° 0 mm 1 m/s 728 mmHg 95%
    02:00 +12°C° 0 mm 1 m/s 727 mmHg 95%
    03:00 +11°C° 0 mm 1 m/s 727 mmHg 95%
    04:00 +11°C° 0 mm 1 m/s 727 mmHg 95%
    05:00 +14°C° 0 mm 1 m/s 727 mmHg 89%
    06:00 +18°C° 0 mm 1 m/s 727 mmHg 83%
    07:00 +20°C° 0 mm 1 m/s 727 mmHg 77%
    08:00 +22°C° 0 mm 1 m/s 727 mmHg 69%
    09:00 +24°C° 0 mm 1 m/s 727 mmHg 62%
    10:00 +26°C° 0 mm 1 m/s 727 mmHg 54%
    11:00 +27°C° 0 mm 2 m/s 727 mmHg 52%
    12:00 +28°C° 0 mm 2 m/s 727 mmHg 50%
    13:00 +28°C° 0 mm 2 m/s 726 mmHg 48%
    14:00 +28°C° 0 mm 2 m/s 726 mmHg 51%
    15:00 +28°C° 0 mm 2 m/s 726 mmHg 54%
    16:00 +27°C° 0 mm 2 m/s 725 mmHg 56%
    17:00 +25°C° 0,1 mm 2 m/s 725 mmHg 65%
    18:00 +24°C° 0,1 mm 1 m/s 725 mmHg 75%
    19:00 +22°C° 0,1 mm 1 m/s 724 mmHg 84%
    20:00 +20°C° 0 mm 1 m/s 724 mmHg 87%
    21:00 +18°C° 0 mm 1 m/s 724 mmHg 91%
    22:00 +15°C° 0 mm 1 m/s 724 mmHg 95%
    23:00 +14°C° 0 mm 1 m/s 724 mmHg 95%

    30 Mai, Marţi

    Timp Temperatura Precipitaţii Vânt Presiune Umiditate
    00:00 +14°C° 0 mm 1 m/s 724 mmHg 94%
    01:00 +14°C° 0 mm 1 m/s 723 mmHg 94%
    02:00 +14°C° 0 mm 1 m/s 723 mmHg 94%
    03:00 +14°C° 0 mm 1 m/s 723 mmHg 94%
    04:00 +13°C° 0 mm 1 m/s 723 mmHg 94%
    05:00 +16°C° 0 mm 1 m/s 723 mmHg 87%
    06:00 +18°C° 0 mm 0 m/s 724 mmHg 80%
    07:00 +21°C° 0 mm 0 m/s 724 mmHg 73%
    08:00 +23°C° 0 mm 0 m/s 724 mmHg 66%
    09:00 +27°C° 0 mm 1 m/s 724 mmHg 59%
    10:00 +28°C° 0 mm 1 m/s 725 mmHg 52%
    11:00 +29°C° 0 mm 1 m/s 724 mmHg 50%
    12:00 +29°C° 0 mm 2 m/s 724 mmHg 49%
    13:00 +30°C° 0 mm 2 m/s 724 mmHg 47%
    14:00 +29°C° 0,2 mm 2 m/s 724 mmHg 52%
    15:00 +29°C° 0,2 mm 2 m/s 724 mmHg 57%
    16:00 +29°C° 0,2 mm 2 m/s 724 mmHg 62%
    17:00 +27°C° 0,3 mm 2 m/s 724 mmHg 69%
    18:00 +25°C° 0,3 mm 1 m/s 723 mmHg 76%
    19:00 +23°C° 0,3 mm 1 m/s 723 mmHg 84%
    20:00 +21°C° 0,1 mm 1 m/s 724 mmHg 87%
    21:00 +20°C° 0,1 mm 1 m/s 724 mmHg 90%
    22:00 +16°C° 0,1 mm 0 m/s 724 mmHg 93%
    23:00 +18°C° 0,5 mm 1 m/s 724 mmHg 93%
    Arată mai mult